Wind_Speed
10 10 8 6 6 7 7 6 5 5 6 7 7 6 6 5 7 8 8 7 7 7 10 11 10 9 7 8 8 8 8 7 6 6 5 5 4 2 1 3 2 5 10
13 10 10 7 6 7 6 6 6 6 8 8 8 7 6 6 5 5 5 6 8 8 10 11 11 9 8 8 9 9 8 8 7 8 8 7 7 5 1 2 2 6 6
14 12 10 9 8 6 6 6 6 5 6 7 6 5 3 2 3 4 6 8 8 8 8 8 8 8 8 9 9 11 9 8 8 9 11 11 12 8 2 1 1 2 6
14 13 11 10 9 8 6 6 5 5 5 5 5 4 2 3 6 7 8 9 10 10 9 7 6 7 7 7 8 9 9 10 10 10 11 11 8 3 3 4 3 3 5
13 12 11 10 9 9 7 5 4 3 4 4 3 2 2 3 5 6 7 8 8 8 8 9 9 10 9 10 11 9 9 10 12 12 14 11 12 7 4 5 3 4 4
14 12 11 10 9 8 6 4 3 3 2 2 2 1 2 4 6 7 8 8 9 10 11 11 12 12 12 11 10 9 9 10 13 14 18 14 11 1 5 6 5 8 6
14 12 10 9 8 6 4 3 2 2 2 3 3 3 3 5 5 5 6 7 8 8 10 11 12 12 12 11 11 10 9 9 8 14 19 15 11 7 7 8 8 7 4
14 11 9 7 6 5 4 3 4 4 5 4 4 4 4 5 5 5 5 6 7 8 9 10 10 10 9 10 10 10 9 8 9 10 9 16 6 2 7 10 11 10 8
12 11 9 7 4 5 5 4 4 3 3 4 4 5 5 6 6 5 6 7 8 9 10 11 10 9 9 8 8 8 8 7 7 7 5 5 3 3 4 7 10 14 11
11 10 8 7 6 4 4 5 5 4 4 4 6 7 8 6 11 9 7 10 10 10 11 11 11 10 9 8 8 7 6 3 7 8 7 6 7 5 5 8 10 14 18
11 9 6 6 5 4 5 6 5 7 7 7 6 10 6 4 6 6 7 10 11 12 13 13 14 14 10 6 8 11 7 6 6 8 1 4 6 6 5 5 7 10 12
11 10 8 5 4 3 3 2 2 2 3 3 5 5 6 7 6 9 6 14 11 14 15 10 14 14 11 11 12 9 9 8 9 7 5 9 12 10 7 8 8 8 9
14 12 9 6 3 1 4 3 2 3 3 3 4 7 8 8 7 9 10 9 11 13 11 13 12 11 11 11 10 11 11 11 11 10 6 10 11 8 8 9 10 10 9
14 12 8 6 3 1 0 1 2 2 3 4 6 6 8 9 9 10 11 13 13 13 13 13 13 12 12 11 10 10 9 9 10 9 8 11 9 8 8 8 8 10 10
12 11 9 7 5 2 0 1 2 2 2 3 4 5 6 7 9 10 11 12 12 13 13 14 14 14 13 12 11 12 11 11 10 10 9 10 10 8 8 8 8 8 10
13 12 10 9 6 4 3 2 1 1 2 3 4 5 5 6 8 9 11 12 13 13 13 15 15 16 15 14 14 13 13 13 12 12 12 10 10 10 8 8 8 6 7
10 11 12 9 8 5 5 4 1 1 2 3 3 3 4 5 8 10 13 14 15 16 17 17 17 18 17 17 18 16 16 16 15 14 13 13 12 11 11 8 7 7 6
12 9 9 10 10 7 6 5 2 1 3 4 3 5 5 6 8 11 14 15 16 17 19 20 20 21 21 21 20 20 20 19 18 17 17 16 15 14 14 11 10 8 6
7 8 10 11 11 8 7 5 3 3 5 5 5 6 5 7 8 10 13 17 18 20 22 22 23 22 23 24 25 25 24 23 22 22 21 20 19 18 16 15 13 12 11
5 6 11 11 8 6 5 5 6 5 5 6 6 4 6 7 9 12 14 16 18 20 22 22 22 25 26 27 29 30 28 27 25 25 24 23 23 22 20 16 15 15 12
3 5 7 10 4 4 5 5 6 8 8 7 7 7 10 10 12 13 15 15 17 19 21 23 25 25 25 25 26 26 28 31 31 29 27 26 26 25 24 22 19 16 16
9 10 8 7 3 1 1 4 4 5 6 8 7 12 12 13 15 16 15 17 18 20 22 23 23 25 25 24 24 24 14 23 29 32 35 32 31 29 27 26 23 20 14
10 9 9 9 8 9 5 5 8 8 9 13 16 17 17 20 20 19 18 19 20 20 22 22 23 24 25 26 25 23 14 14 14 27 27 33 31 28 30 28 26 23 19
12 11 9 8 6 8 10 8 10 10 13 13 15 18 20 20 20 21 21 20 19 21 21 22 21 22 24 26 25 27 30 30 15 15 30 27 29 24 25 27 26 23 21
9 8 6 5 6 6 5 6 8 12 17 22 21 17 19 19 20 21 22 22 22 20 18 18 18 17 18 21 21 21 22 23 21 7 11 17 22 26 23 23 26 20 20
6 5 4 5 5 5 6 8 13 13 11 16 17 19 18 21 22 22 23 20 19 18 15 16 15 15 9 14 14 13 11 8 13 9 9 14 13 17 20 15 17 20 16
Wind_Direction
136 99 135 126 124 124 115 117 110 101 103 107 100 93 100 83 64 55 56 58 44 19 7 358 357 346 320 309 305 299 295 289 298 305 304 305 293 322 62 85 112 156 138
127 120 123 134 140 130 117 110 97 73 80 89 85 83 71 69 60 54 46 26 12 355 350 358 360 357 333 305 296 287 264 267 261 266 278 272 254 227 187 131 307 137 107
127 123 113 121 130 124 115 111 96 89 98 98 100 106 84 38 8 356 354 356 349 347 349 358 18 345 324 314 305 279 266 259 249 246 254 259 232 229 159 197 241 135 154
119 116 111 113 125 138 128 121 109 101 93 87 89 82 48 351 347 347 343 348 356 5 7 19 358 330 333 320 311 290 278 264 257 249 256 255 211 229 199 215 199 186 194
115 106 114 116 119 133 132 114 105 103 104 104 84 51 347 330 328 337 342 353 2 8 20 20 11 7 354 327 308 302 281 269 259 253 258 257 269 205 178 219 201 221 223
115 111 123 112 105 107 124 138 136 125 63 42 35 18 11 355 0 356 1 7 16 18 17 14 10 6 1 351 331 302 278 269 256 257 254 245 216 278 188 216 209 225 203
112 112 112 109 108 94 81 72 69 77 71 71 64 49 26 24 19 21 22 22 21 18 12 9 8 6 2 356 347 336 306 276 272 264 281 255 217 159 243 242 228 210 190
117 113 108 114 107 108 97 71 64 55 58 51 49 37 39 38 29 21 19 18 16 14 8 4 359 356 352 348 345 342 337 311 277 284 304 311 351 53 262 256 252 243 226
128 126 126 126 121 89 77 70 55 48 45 33 30 29 28 19 11 13 4 1 2 1 359 354 348 348 343 337 331 329 333 333 291 318 291 272 306 292 267 264 259 251 241
148 141 136 136 121 117 97 49 41 30 29 28 19 18 19 25 18 10 27 357 353 351 348 346 346 346 341 334 335 322 321 296 293 291 276 308 318 298 297 271 264 258 251
162 147 143 130 98 83 81 56 38 33 32 27 20 6 5 345 342 354 326 340 347 348 345 346 347 345 343 321 329 341 320 290 301 286 355 234 296 283 293 284 272 271 277
168 162 148 139 121 114 84 67 77 19 34 17 12 354 343 351 332 339 316 338 348 343 335 339 339 342 333 319 309 318 303 307 293 287 269 290 291 279 272 268 270 273 278
174 170 161 145 120 71 67 28 10 358 4 4 3 355 340 335 339 326 328 322 325 317 323 322 316 317 319 312 307 300 296 289 284 284 275 285 287 275 273 265 260 262 261
169 173 162 142 145 145 353 32 24 338 10 358 0 349 344 335 337 337 329 326 319 321 319 316 314 313 308 305 297 288 283 283 283 281 266 279 280 274 272 270 256 251 256
173 170 170 167 183 174 181 24 352 342 17 3 9 7 355 345 342 336 332 324 322 319 317 316 312 310 306 298 290 288 284 279 275 270 271 265 279 265 264 261 259 250 246
189 179 184 194 193 191 199 188 205 74 15 4 16 22 12 352 341 331 325 321 319 318 314 310 307 303 300 293 284 276 272 270 267 263 266 250 262 260 250 252 256 248 237
193 206 179 201 182 193 189 189 186 60 347 340 352 359 354 339 323 316 313 314 315 315 311 304 302 297 292 291 289 279 271 265 259 255 255 257 232 249 244 245 242 242 243
217 189 193 189 187 193 182 186 222 261 304 298 310 325 321 323 315 309 306 306 307 302 300 300 297 292 290 287 282 279 279 270 262 253 248 248 244 232 220 238 235 233 234
218 230 207 178 197 191 183 218 238 254 283 321 315 322 332 317 317 311 307 305 304 299 295 294 293 291 287 284 280 276 267 264 265 257 249 244 237 235 231 213 229 231 235
256 229 212 172 198 200 206 230 263 263 281 293 307 325 331 326 329 317 308 302 300 298 296 295 295 291 290 288 284 287 282 276 259 255 255 247 242 232 234 224 219 226 223
128 179 180 134 95 216 226 276 296 298 311 307 309 344 332 324 320 311 302 299 298 296 298 296 293 289 284 282 284 272 269 262 260 255 255 250 247 239 229 236 228 231 214
80 85 91 103 83 360 63 11 6 338 321 312 312 323 315 320 316 313 313 308 304 300 297 293 290 288 285 281 279 280 280 273 261 245 237 238 240 239 232 226 228 234 230
87 92 95 96 84 66 46 25 1 333 322 325 323 319 321 323 318 317 314 309 305 301 298 300 298 295 291 287 282 283 282 273 278 262 251 228 236 233 231 227 218 222 220
90 93 93 85 72 54 38 27 2 345 330 326 311 314 315 316 313 316 314 312 309 304 300 299 300 306 297 291 291 283 282 285 279 282 276 279 235 241 235 236 225 214 222
95 90 78 62 38 35 30 7 348 331 320 315 311 316 317 314 319 317 315 312 308 302 302 301 304 305 304 300 304 313 313 307 303 332 290 284 265 232 239 231 250 221 222
77 59 30 354 339 321 314 316 312 316 317 310 317 321 319 318 316 314 313 309 302 299 305 309 305 315 336 321 313 321 336 347 344 338 327 315 296 287 258 252 225 252 244
Height
803 807 811 813 814 816 817 819 820 820 821 822 821 825 825 826 825 827 827 826 827 829 826 825 824 823 823 823 820 821 821 822 821 822 822 821 822 823 823 822 824 822 820
803 809 811 813 815 817 819 822 823 825 824 825 825 827 829 827 830 830 829 828 826 828 828 826 824 824 825 823 821 821 821 823 821 823 823 823 823 823 823 825 826 821 822
805 810 813 814 816 819 821 822 823 825 825 824 826 827 827 829 830 831 830 827 829 828 828 827 826 826 825 823 822 823 822 822 823 822 823 823 820 820 820 826 827 825 828
807 811 814 815 818 821 823 823 824 825 826 828 827 828 828 829 830 830 830 829 829 828 829 828 827 827 825 824 824 824 823 823 823 823 823 821 817 816 820 825 827 827 829
810 814 817 818 820 822 824 825 828 827 826 829 829 829 831 829 830 830 830 829 829 830 830 828 828 826 825 824 824 823 823 823 824 822 821 818 813 815 818 824 825 827 827
814 817 819 821 822 823 825 827 827 828 831 830 830 831 830 830 830 831 830 831 830 830 830 829 829 827 825 824 823 822 822 822 822 822 818 810 808 814 818 823 823 826 823
816 820 821 822 825 827 829 830 831 830 831 830 832 831 832 831 831 832 831 831 830 830 830 829 828 827 827 827 825 823 821 821 820 819 816 800 800 802 817 821 822 823 822
819 821 824 824 827 827 827 833 831 832 832 832 832 832 831 831 833 833 832 832 831 830 829 829 829 828 828 826 825 824 823 821 819 817 814 805 801 801 817 820 821 821 819
819 822 824 826 827 827 828 830 832 833 833 833 833 833 833 833 833 833 832 832 831 830 829 829 829 827 826 826 825 823 822 820 818 817 817 814 812 815 818 819 819 820 820
821 823 825 826 826 828 829 829 832 833 833 833 834 834 834 834 834 834 834 832 832 831 830 830 829 827 826 825 824 823 822 820 818 817 815 815 816 818 819 818 818 818 818
821 823 826 828 829 831 830 830 832 834 835 834 835 835 835 835 836 836 834 834 832 831 830 830 828 827 825 823 822 822 820 818 818 816 814 814 815 817 817 817 817 816 816
819 823 826 828 829 830 829 831 833 835 835 836 836 836 835 837 836 836 833 832 830 830 829 828 827 825 824 824 822 821 820 818 818 816 813 813 814 815 815 814 814 813 813
817 819 825 827 831 830 830 831 832 834 836 835 835 836 837 836 834 834 834 832 832 830 829 828 827 825 824 824 822 821 820 818 816 814 811 812 812 812 812 812 811 811 811
814 819 825 826 830 830 829 830 833 834 835 834 834 835 836 835 834 834 833 833 832 830 829 828 826 824 823 822 821 819 818 816 814 813 810 811 811 810 809 808 809 809 809
813 817 821 826 829 830 831 833 835 836 835 834 833 834 835 835 835 834 834 833 831 829 827 826 824 822 820 819 818 817 816 815 813 811 809 808 808 808 806 805 805 806 806
812 814 819 823 828 830 831 833 835 835 835 835 833 834 834 835 834 834 833 832 829 827 826 824 822 820 818 816 815 814 813 811 809 809 808 804 805 805 804 804 803 801 801
809 812 816 821 827 829 831 833 834 834 835 834 833 834 833 834 834 833 832 831 829 827 825 822 820 818 816 815 812 810 809 808 806 805 804 803 801 801 801 801 800 800 800
807 810 814 820 825 828 830 832 832 832 833 832 832 832 833 832 832 831 830 828 826 824 822 819 817 814 812 810 808 807 805 803 802 801 799 799 798 797 796 797 797 796 797
807 810 814 819 824 826 829 831 832 832 832 830 831 831 831 831 830 829 827 825 824 822 819 816 813 811 807 805 802 800 798 796 795 794 794 793 793 792 792 791 792 792 792
808 811 813 818 823 826 827 830 830 830 830 830 829 829 830 829 829 827 825 823 821 819 816 813 810 807 805 802 798 794 792 790 788 788 787 787 787 787 788 787 787 787 787
812 813 814 819 825 826 828 829 828 829 829 829 830 830 830 828 826 824 821 819 816 814 811 809 807 803 800 797 793 788 784 782 781 781 781 780 781 781 781 782 782 782 782
815 818 821 825 828 829 829 831 831 831 831 831 829 829 828 827 825 822 819 816 813 810 808 806 804 799 795 794 789 784 777 773 771 767 768 769 769 771 772 775 776 777 778
822 824 826 829 831 832 832 832 831 830 829 828 828 828 827 826 823 819 816 815 812 809 806 804 802 799 793 789 788 784 778 767 764 761 756 756 761 761 764 765 766 770 772
827 829 830 832 833 833 833 833 833 832 831 830 828 826 824 823 820 817 814 812 810 807 803 800 798 796 793 786 784 781 775 770 765 761 757 754 753 757 760 762 761 764 766
830 832 832 833 833 833 832 833 832 832 832 829 825 820 820 819 817 814 811 809 807 803 800 798 795 793 791 787 781 778 774 769 767 767 759 755 751 751 753 757 760 758 761
832 833 833 832 832 832 832 830 829 826 824 826 823 819 818 817 814 811 809 806 803 800 798 796 793 791 789 791 788 785 783 780 778 777 772 763 757 753 752 753 755 760 758